�������l�o���
Date,Time,MP-1(��Sv/h),MP-2(��Sv/h),MP-3(��Sv/h),MP-4(��Sv/h),MP-5(��Sv/h),MP-6(��Sv/h),MP-7(��Sv/h),MP-8(��Sv/h),����,����(m/s),���J
2018/12/01,00:00,0.790,1.192,0.835,1.502,1.081,0.456,0.807,0.762,���k��,1.2,��
2018/12/01,00:10,0.789,1.192,0.838,1.501,1.081,0.455,0.806,0.762,��,1.4,��
2018/12/01,00:20,0.788,1.196,0.836,1.502,1.081,0.455,0.805,0.761,��,1.1,��
2018/12/01,00:30,0.788,1.196,0.839,1.501,1.078,0.456,0.804,0.762,���k��,1.5,��
2018/12/01,00:40,0.789,1.195,0.836,1.501,1.080,0.456,0.805,0.762,��,1.9,��
2018/12/01,00:50,0.789,1.197,0.836,1.501,1.082,0.456,0.803,0.762,���쐼,2.0,��
2018/12/01,01:00,0.789,1.195,0.837,1.501,1.079,0.456,0.805,0.764,���쐼,1.9,�L
2018/12/01,01:10,0.789,1.194,0.838,1.499,1.079,0.456,0.805,0.762,�쐼,1.5,��
2018/12/01,01:20,0.789,1.194,0.836,1.503,1.080,0.454,0.805,0.762,�쐼,1.7,��
2018/12/01,01:30,0.791,1.195,0.838,1.501,1.081,0.456,0.804,0.761,��쐼,1.7,�L
2018/12/01,01:40,0.789,1.195,0.838,1.501,1.082,0.455,0.805,0.763,��쐼,2.3,��
2018/12/01,01:50,0.790,1.193,0.838,1.501,1.078,0.453,0.806,0.760,��쐼,1.9,��
2018/12/01,02:00,0.790,1.196,0.838,1.501,1.079,0.456,0.806,0.762,�쐼,2.0,��
2018/12/01,02:10,0.790,1.193,0.838,1.501,1.080,0.455,0.807,0.763,�쐼,1.5,��
2018/12/01,02:20,0.787,1.193,0.837,1.501,1.080,0.454,0.805,0.764,�쐼,1.5,��
2018/12/01,02:30,0.791,1.195,0.836,1.499,1.077,0.455,0.803,0.764,�쐼,1.5,��
2018/12/01,02:40,0.789,1.190,0.837,1.501,1.079,0.454,0.806,0.761,��쐼,1.7,��
2018/12/01,02:50,0.789,1.192,0.838,1.500,1.081,0.455,0.805,0.763,��,1.4,��
2018/12/01,03:00,0.789,1.195,0.836,1.502,1.079,0.455,0.804,0.764,��,1.5,��
2018/12/01,03:10,0.789,1.191,0.837,1.499,1.080,0.456,0.805,0.762,��쐼,1.9,��
2018/12/01,03:20,0.789,1.192,0.835,1.500,1.080,0.455,0.804,0.762,��,2.5,��
2018/12/01,03:30,0.789,1.193,0.835,1.503,1.081,0.456,0.805,0.763,��쐼,2.6,��
2018/12/01,03:40,0.788,1.194,0.838,1.499,1.081,0.455,0.805,0.762,��쐼,3.2,��
2018/12/01,03:50,0.790,1.190,0.836,1.499,1.079,0.454,0.804,0.762,��쐼,3.6,��
2018/12/01,04:00,0.788,1.194,0.836,1.502,1.079,0.455,0.804,0.761,��쐼,3.4,��
2018/12/01,04:10,0.789,1.194,0.837,1.499,1.079,0.456,0.806,0.764,��,3.6,��
2018/12/01,04:20,0.789,1.193,0.837,1.500,1.078,0.455,0.805,0.764,��,3.9,��
2018/12/01,04:30,0.788,1.195,0.836,1.499,1.080,0.455,0.805,0.762,��,4.1,��
2018/12/01,04:40,0.788,1.190,0.837,1.501,1.078,0.454,0.804,0.761,��,4.9,��
2018/12/01,04:50,0.789,1.194,0.839,1.499,1.078,0.456,0.807,0.762,��,4.7,��
2018/12/01,05:00,0.790,1.194,0.836,1.500,1.079,0.456,0.806,0.762,��,6.8,��
2018/12/01,05:10,0.788,1.194,0.837,1.500,1.079,0.456,0.805,0.762,��,7.2,��
2018/12/01,05:20,0.790,1.192,0.837,1.501,1.079,0.455,0.805,0.762,��,7.9,��
2018/12/01,05:30,0.791,1.192,0.838,1.499,1.080,0.457,0.805,0.763,��,8.3,��
2018/12/01,05:40,0.789,1.192,0.836,1.503,1.081,0.456,0.806,0.762,��,7.9,��
2018/12/01,05:50,0.789,1.195,0.837,1.499,1.078,0.455,0.804,0.763,��쐼,7.9,��
2018/12/01,06:00,0.788,1.195,0.838,1.501,1.079,0.457,0.807,0.763,��쐼,6.9,��
2018/12/01,06:10,0.789,1.193,0.837,1.501,1.078,0.457,0.805,0.764,��쐼,7.5,��
2018/12/01,06:20,0.791,1.194,0.839,1.500,1.080,0.456,0.805,0.763,��쐼,7.5,��
2018/12/01,06:30,0.788,1.194,0.837,1.501,1.079,0.456,0.807,0.760,��쐼,8.4,��
2018/12/01,06:40,0.791,1.193,0.838,1.502,1.081,0.456,0.807,0.763,��,9.5,��
2018/12/01,06:50,0.791,1.193,0.837,1.500,1.077,0.455,0.806,0.764,��,8.9,��
2018/12/01,07:00,0.791,1.192,0.839,1.499,1.078,0.456,0.808,0.760,��쐼,8.6,��
2018/12/01,07:10,0.793,1.188,0.836,1.500,1.080,0.456,0.807,0.763,��쐼,8.4,��
2018/12/01,07:20,0.791,1.192,0.838,1.500,1.081,0.456,0.807,0.764,��쐼,6.8,��
2018/12/01,07:30,0.792,1.192,0.838,1.501,1.078,0.457,0.807,0.763,��쐼,5.1,��
2018/12/01,07:40,0.789,1.193,0.838,1.502,1.082,0.458,0.807,0.764,��쐼,6.3,��
2018/12/01,07:50,0.791,1.193,0.837,1.502,1.081,0.457,0.806,0.763,�쐼,4.4,��
2018/12/01,08:00,0.793,1.191,0.838,1.502,1.081,0.457,0.806,0.764,�쐼,3.7,��
2018/12/01,08:10,0.793,1.193,0.838,1.502,1.080,0.456,0.806,0.764,�쐼,4.7,��
2018/12/01,08:20,0.792,1.192,0.838,1.501,1.081,0.457,0.807,0.764,��쐼,5.0,��
2018/12/01,08:30,0.791,1.193,0.840,1.499,1.079,0.457,0.808,0.765,��쐼,4.9,��
2018/12/01,08:40,0.792,1.191,0.837,1.501,1.082,0.457,0.807,0.764,��,5.1,��
2018/12/01,08:50,0.794,1.192,0.839,1.498,1.083,0.458,0.808,0.764,��,5.2,��
2018/12/01,09:00,0.793,1.194,0.837,1.502,1.080,0.457,0.810,0.764,��,5.1,��
2018/12/01,09:10,0.794,1.192,0.839,1.501,1.082,0.458,0.809,0.764,��쓌,4.9,��
2018/12/01,09:20,0.793,1.194,0.838,1.502,1.084,0.459,0.808,0.763,��쓌,4.9,��
2018/12/01,09:30,0.791,1.190,0.836,1.501,1.084,0.458,0.806,0.763,��,5.1,��
2018/12/01,09:40,0.795,1.188,0.837,1.500,1.083,0.458,0.805,0.763,��쐼,5.1,��
2018/12/01,09:50,0.795,1.188,0.838,1.503,1.081,0.459,0.805,0.763,�쐼,5.5,��
2018/12/01,10:00,0.793,1.188,0.840,1.500,1.084,0.458,0.807,0.765,���쐼,4.8,��
2018/12/01,10:10,0.793,1.188,0.838,1.502,1.083,0.458,0.808,0.765,���쐼,7.2,��
2018/12/01,10:20,0.793,1.188,0.840,1.504,1.081,0.458,0.808,0.764,���k��,5.3,��
2018/12/01,10:30,0.794,1.189,0.840,1.502,1.079,0.457,0.808,0.766,��,4.7,��
2018/12/01,10:40,0.794,1.188,0.838,1.499,1.085,0.457,0.807,0.764,��,6.1,��
2018/12/01,10:50,0.794,1.187,0.840,1.503,1.082,0.456,0.807,0.766,���쐼,9.3,��
2018/12/01,11:00,0.793,1.188,0.841,1.504,1.085,0.457,0.806,0.766,���쐼,10.3,��
2018/12/01,11:10,0.793,1.192,0.842,1.502,1.086,0.458,0.807,0.764,��,10.2,��
2018/12/01,11:20,0.794,1.191,0.840,1.501,1.083,0.457,0.806,0.766,���쐼,8.6,��
2018/12/01,11:30,0.793,1.193,0.838,1.500,1.082,0.460,0.808,0.765,��,10.8,��
2018/12/01,11:40,0.793,1.192,0.842,1.501,1.081,0.461,0.807,0.766,��,10.2,��
2018/12/01,11:50,0.794,1.193,0.840,1.503,1.082,0.460,0.807,0.765,��,8.7,��
2018/12/01,12:00,0.794,1.193,0.840,1.501,1.083,0.459,0.807,0.764,��,10.2,��
2018/12/01,12:10,0.792,1.193,0.841,1.500,1.085,0.459,0.807,0.765,��,9.8,��
2018/12/01,12:20,0.793,1.192,0.840,1.503,1.082,0.460,0.808,0.765,��,9.9,��
2018/12/01,12:30,0.794,1.192,0.839,1.503,1.082,0.461,0.808,0.765,���쐼,8.4,��
2018/12/01,12:40,0.790,1.191,0.841,1.502,1.084,0.459,0.807,0.763,��,10.3,��
2018/12/01,12:50,0.793,1.191,0.840,1.503,1.081,0.461,0.806,0.762,���k��,13.3,��
2018/12/01,13:00,0.792,1.190,0.839,1.501,1.082,0.462,0.808,0.763,���k��,11.3,��
2018/12/01,13:10,0.793,1.193,0.837,1.502,1.083,0.461,0.807,0.762,���k��,8.8,��
2018/12/01,13:20,0.792,1.191,0.839,1.504,1.082,0.462,0.809,0.763,���k��,8.6,�L
2018/12/01,13:30,0.793,1.191,0.837,1.504,1.084,0.459,0.810,0.762,�k��,8.8,�L
2018/12/01,13:40,0.792,1.190,0.839,1.503,1.084,0.461,0.809,0.762,�k��,8.6,�L
2018/12/01,13:50,0.790,1.189,0.838,1.505,1.083,0.460,0.808,0.762,�k��,9.6,�L
2018/12/01,14:00,0.790,1.190,0.838,1.505,1.084,0.458,0.806,0.760,�k��,7.1,��
2018/12/01,14:10,0.792,1.188,0.840,1.505,1.085,0.461,0.807,0.759,�k��,5.7,�L
2018/12/01,14:20,0.793,1.187,0.839,1.504,1.082,0.462,0.807,0.762,���k��,5.4,��
2018/12/01,14:30,0.793,1.190,0.842,1.504,1.083,0.460,0.806,0.763,���k��,6.4,��
2018/12/01,14:40,0.797,1.188,0.842,1.503,1.082,0.459,0.807,0.762,���k��,8.6,��
2018/12/01,14:50,0.797,1.191,0.841,1.505,1.082,0.459,0.804,0.764,�k��,9.9,��
2018/12/01,15:00,0.793,1.190,0.838,1.504,1.085,0.458,0.806,0.764,�k��,7.6,��
2018/12/01,15:10,0.794,1.194,0.840,1.505,1.088,0.458,0.807,0.764,���k��,6.2,��
2018/12/01,15:20,0.794,1.195,0.840,1.505,1.086,0.458,0.806,0.763,���k��,4.9,��
2018/12/01,15:30,0.794,1.198,0.838,1.505,1.084,0.458,0.807,0.765,�k��,5.9,��
2018/12/01,15:40,0.793,1.197,0.841,1.505,1.087,0.457,0.807,0.764,���k��,8.1,��
2018/12/01,15:50,0.795,1.199,0.839,1.504,1.085,0.457,0.804,0.766,�k��,8.5,��
2018/12/01,16:00,0.795,1.198,0.839,1.504,1.084,0.458,0.806,0.766,���k��,7.6,��
2018/12/01,16:10,0.793,1.196,0.842,1.505,1.088,0.458,0.804,0.766,���k��,7.0,��
2018/12/01,16:20,0.793,1.196,0.841,1.504,1.084,0.458,0.806,0.765,���k��,7.0,��
2018/12/01,16:30,0.794,1.198,0.838,1.504,1.083,0.457,0.806,0.766,�k��,5.5,��
2018/12/01,16:40,0.792,1.199,0.842,1.506,1.085,0.457,0.807,0.763,�k��,7.2,��
2018/12/01,16:50,0.794,1.200,0.839,1.504,1.086,0.457,0.805,0.763,�k�k��,6.9,��
2018/12/01,17:00,0.793,1.197,0.838,1.504,1.084,0.458,0.806,0.764,�k�k��,8.8,��
2018/12/01,17:10,0.793,1.199,0.840,1.504,1.083,0.458,0.808,0.765,�k�k��,8.8,��
2018/12/01,17:20,0.792,1.200,0.835,1.504,1.082,0.457,0.809,0.764,�k,6.4,��
2018/12/01,17:30,0.794,1.197,0.841,1.503,1.083,0.457,0.808,0.763,�k,7.2,��
2018/12/01,17:40,0.792,1.199,0.839,1.504,1.084,0.456,0.809,0.763,�k,7.9,��
2018/12/01,17:50,0.793,1.200,0.838,1.502,1.083,0.456,0.811,0.764,�k,8.5,��
2018/12/01,18:00,0.790,1.200,0.842,1.504,1.085,0.456,0.806,0.764,�k,7.1,��
2018/12/01,18:10,0.792,1.198,0.841,1.502,1.083,0.456,0.810,0.765,�k,8.0,��
2018/12/01,18:20,0.792,1.199,0.840,1.506,1.083,0.457,0.807,0.763,�k�k��,9.2,��
2018/12/01,18:30,0.792,1.201,0.842,1.506,1.085,0.456,0.808,0.763,�k��,8.8,��
2018/12/01,18:40,0.793,1.198,0.838,1.507,1.084,0.455,0.808,0.764,�k�k��,5.3,��
2018/12/01,18:50,0.791,1.200,0.840,1.506,1.082,0.454,0.809,0.763,�k,3.7,��
2018/12/01,19:00,0.792,1.198,0.840,1.505,1.081,0.454,0.809,0.765,�k�k��,5.5,��
2018/12/01,19:10,0.791,1.199,0.840,1.504,1.085,0.455,0.808,0.763,�k��,6.0,��
2018/12/01,19:20,0.792,1.198,0.838,1.503,1.084,0.455,0.810,0.764,�k��,5.6,��
2018/12/01,19:30,0.791,1.199,0.838,1.503,1.084,0.455,0.808,0.763,�k��,5.0,��
2018/12/01,19:40,0.791,1.197,0.839,1.504,1.084,0.455,0.807,0.763,�k��,6.0,��
2018/12/01,19:50,0.791,1.196,0.837,1.503,1.085,0.455,0.807,0.764,�k��,5.1,��
2018/12/01,20:00,0.790,1.197,0.838,1.501,1.081,0.454,0.807,0.761,�k��,5.3,��
2018/12/01,20:10,0.789,1.198,0.837,1.504,1.086,0.455,0.807,0.762,�k��,4.1,��
2018/12/01,20:20,0.791,1.198,0.836,1.500,1.082,0.455,0.805,0.761,�k��,3.1,��
2018/12/01,20:30,0.792,1.197,0.836,1.504,1.081,0.455,0.805,0.761,�k�k��,1.9,��
2018/12/01,20:40,0.791,1.194,0.837,1.501,1.082,0.456,0.805,0.763,�k�k��,2.2,��
2018/12/01,20:50,0.790,1.196,0.836,1.502,1.082,0.454,0.807,0.762,�k�k��,2.0,��
2018/12/01,21:00,0.791,1.193,0.838,1.501,1.082,0.453,0.805,0.763,�k��,1.1,��
2018/12/01,21:10,0.789,1.194,0.836,1.503,1.081,0.454,0.805,0.761,��,1.2,��
2018/12/01,21:20,0.790,1.194,0.837,1.504,1.083,0.456,0.805,0.762,��,1.4,��
2018/12/01,21:30,0.789,1.197,0.838,1.501,1.081,0.453,0.804,0.760,�k��,0.6,��
2018/12/01,21:40,0.790,1.196,0.836,1.501,1.082,0.454,0.804,0.763,�k�k��,0.6,��
2018/12/01,21:50,0.789,1.197,0.839,1.500,1.082,0.455,0.804,0.762,�k��,2.2,��
2018/12/01,22:00,0.790,1.196,0.837,1.503,1.082,0.455,0.805,0.761,���k��,1.7,��
2018/12/01,22:10,0.790,1.196,0.839,1.501,1.082,0.454,0.804,0.761,���k��,2.2,��
2018/12/01,22:20,0.791,1.196,0.839,1.501,1.083,0.454,0.804,0.762,�k��,2.3,��
2018/12/01,22:30,0.790,1.197,0.837,1.503,1.080,0.453,0.805,0.762,���k��,2.6,��
2018/12/01,22:40,0.791,1.197,0.836,1.498,1.082,0.456,0.805,0.763,�k��,4.0,��
2018/12/01,22:50,0.787,1.197,0.838,1.501,1.082,0.453,0.803,0.762,�k��,3.3,��
2018/12/01,23:00,0.790,1.198,0.836,1.501,1.082,0.453,0.804,0.762,�k��,3.4,��
2018/12/01,23:10,0.788,1.196,0.838,1.504,1.084,0.453,0.804,0.762,�k��,2.8,��
2018/12/01,23:20,0.789,1.197,0.836,1.503,1.082,0.454,0.804,0.761,�k��,3.3,��
2018/12/01,23:30,0.789,1.193,0.837,1.501,1.080,0.454,0.804,0.761,�k��,3.4,��
2018/12/01,23:40,0.787,1.197,0.837,1.500,1.080,0.454,0.803,0.762,�k��,4.0,��
2018/12/01,23:50,0.789,1.194,0.836,1.502,1.083,0.454,0.805,0.762,�k��,4.2,��
